This demonstration page uses our WeatherBlox Daily Observations layout. Learn more.

Left ArrowRight Arrow

41.86663, -103.66717

Hourly Observations for March 16, 2016

Temp ( °F °C ) Dew Point ( °F °C ) Humidity (%) Winds ( mph kmh ) Pressure ( in mb ) Visibility ( mi km ) Precip ( " mm )
12:53 am 00:53 Clear 27 -2.8 18 -7.8 69 69 W 10 17 29.98 1015 10 16 N/A
1:53 am 01:53 Clear 25 -3.9 18 -7.8 75 75 WNW 6 9 30.00 1016 10 16 N/A
2:53 am 02:53 Clear 23 -5 17 -8.3 78 78 NW 6 9 30.00 1016 10 16 N/A
3:53 am 03:53 Clear 24 -4.4 17 -8.3 75 75 NW 8 13 30.01 1016 10 16 N/A
4:53 am 04:53 Clear 24 -4.4 17 -8.3 75 75 NW 6 9 30.03 1017 10 16 N/A
5:53 am 05:53 Clear 20 -6.7 15 -9.4 81 81 NW 7 11 30.06 1018 10 16 N/A
6:53 am 06:53 Clear 20 -6.7 14 -10 78 78 NNW 5 7 30.10 1019 10 16 N/A
7:53 am 07:53 Sunny 26 -3.3 16 -8.9 66 66 WNW 10 17 30.10 1019 10 16 N/A
8:53 am 08:53 Sunny 32 undefined 19 -7.2 59 59 WNW 12 19 30.09 1019 10 16 N/A
9:53 am 09:53 Sunny 39 3.9 19 -7.2 45 45 WNW 17 28 30.10 1019 10 16 N/A
10:53 am 10:53 Sunny 42 5.6 17 -8.3 36 36 NW 15 24 30.10 1019 10 16 N/A
11:53 am 11:53 Mostly Cloudy 44 6.7 13 -10.6 28 28 WNW 12 19 30.08 1019 10 16 N/A
12:53 pm 12:53 Partly Cloudy 47 8.3 9 -12.8 21 21 WNW 18 30 30.05 1018 10 16 N/A
1:53 pm 13:53 Cloudy 43 6.1 9 -12.8 25 25 NW 23 37 30.06 1018 10 16 N/A
2:53 pm 14:53 Sunny 43 6.1 9 -12.8 25 25 NW 13 20 30.05 1018 10 16 N/A
3:19 pm 15:19 Mostly Cloudy 47 8.3 10 -12.2 22 22 NW 14 22 29.97 1015 10 16 N/A
3:53 pm 15:53 Partly Cloudy 44 6.7 8 -13.3 23 23 NNW 8 13 30.04 1017 10 16 N/A
4:53 pm 16:53 Partly Cloudy 44 6.7 6 -14.4 21 21 NW 3 6 30.03 1017 10 16 N/A
5:53 pm 17:53 Mostly Cloudy 44 6.7 2 -16.7 17 17 WNW 10 17 30.04 1017 10 16 N/A
6:53 pm 18:53 Mostly Sunny 40 4.4 5 -15 23 23 N 12 19 30.06 1018 10 16 N/A
7:53 pm 19:53 Clear 30 -1.1 8 -13.3 39 39 NE 6 9 30.08 1019 10 16 N/A
8:53 pm 20:53 Clear 29 -1.7 11 -11.7 47 47 N N/A 30.08 1019 10 16 N/A
9:53 pm 21:53 Partly Cloudy 27 -2.8 11 -11.7 51 51 N 3 6 30.08 1019 10 16 N/A
10:53 pm 22:53 Partly Cloudy 28 -2.2 13 -10.6 53 53 N N/A 30.07 1018 10 16 N/A
11:53 pm 23:53 Mostly Cloudy 26 -3.3 12 -11.1 55 55 NNE 9 15 30.07 1018 10 16 N/A

Powered by AerisWeather